Coventry, United Kingdom

1:11 PM BST on August 19, 2017 (GMT +0100)
Coventry

Weather History for EGBE - October, 2012

Change the Weather History Date:

Friday, October 26, 2012

  Actual Average Record
Temperature  
Mean Temperature 44 °F -  
Max Temperature 48 °F 49 °F 62 °F (2005)
Min Temperature 39 °F 38 °F 30 °F (1997)
Degree Days  
Heating Degree Days 22    
Moisture  
Dew Point 35 °F    
Average Humidity 72    
Maximum Humidity 87    
Minimum Humidity 61    
Precipitation  
Precipitation 0.00 in - - ()
Sea Level Pressure  
Sea Level Pressure 29.97 in    
Wind  
Wind Speed 15 mph ()    
Max Wind Speed 20 mph    
Max Gust Speed -    
Visibility 6.2 miles    
Events      
Averages and records for this station are not official NWS values.
T = Trace of Precipitation, MM = Missing Value Source: Averaged Metar Reports

Daily Weather History Graph

Daily Weather History Graph

Search for Another Location

Airport or City:

Trip Planner

Search our weather history database for the weather conditions in past years. The results will help you decide how hot, cold, wet, or windy it might be!

Date:

Astronomy

Oct. 26, 2012 Rise Set
Actual Time 7:51 AM BST 5:47 PM BST
Civil Twilight 7:16 AM BST 6:22 PM BST
Nautical Twilight 6:36 AM BST 7:02 PM BST
Astronomical Twilight 5:56 AM BST 7:41 PM BST
Moon 4:13 PM BST (10/26) 4:12 AM BST (10/26)
Length of Visible Light 11h 06m
Length of Day
9h 55m
Waxing Gibbous, 89% of the Moon is Illuminated
Oct 26
Waxing Gibbous
Oct 29
Full
Nov 7
Last Quarter
Nov 13
New
Nov 20
First Quarter

Hourly Weather History & Observations

Time (BST) Temp. Windchill Dew Point Humidity Pressure Visibility Wind Dir Wind Speed Gust Speed Precip Events Conditions
12:20 AM 48.2 °F - 42.8 °F 82% 30.04 in - NE 16.1 mph - N/A   Clear
12:50 AM 46.4 °F 39.5 °F 42.8 °F 87% 30.06 in - NE 17.3 mph - N/A   Clear
1:20 AM 46.4 °F 39.8 °F 42.8 °F 87% 30.04 in 6.2 mi NE 16.1 mph - N/A   Scattered Clouds
1:50 AM 46.4 °F 39.5 °F 42.8 °F 87% 30.04 in 6.2 mi NE 17.3 mph - N/A   Scattered Clouds
6:50 AM 44.6 °F 37.8 °F 39.2 °F 81% 30.01 in 6.2 mi NE 15.0 mph - N/A   Mostly Cloudy
7:20 AM 42.8 °F 35.4 °F 39.2 °F 87% 30.01 in 6.2 mi NNE 15.0 mph - N/A   Mostly Cloudy
7:50 AM 42.8 °F 35.8 °F 37.4 °F 81% 30.01 in 6.2 mi NNE 13.8 mph - N/A   Mostly Cloudy
8:20 AM 42.8 °F 35.4 °F 37.4 °F 81% 30.01 in 6.2 mi NNE 15.0 mph - N/A   Mostly Cloudy
8:50 AM 42.8 °F 35.4 °F 37.4 °F 81% 30.01 in 6.2 mi NE 15.0 mph - N/A   Mostly Cloudy
9:20 AM 42.8 °F 36.2 °F 37.4 °F 81% 30.01 in 6.2 mi NE 12.7 mph - N/A   Scattered Clouds
9:50 AM 44.6 °F 38.1 °F 37.4 °F 76% 30.01 in 6.2 mi NNE 13.8 mph - N/A   Scattered Clouds
10:20 AM 46.4 °F 39.8 °F 37.4 °F 71% 30.01 in 6.2 mi NE 16.1 mph - N/A   Scattered Clouds
10:50 AM 44.6 °F 37.4 °F 37.4 °F 76% 29.98 in 6.2 mi NNE 16.1 mph - N/A   Scattered Clouds
11:20 AM 46.4 °F 40.1 °F 35.6 °F 66% 29.98 in 6.2 mi NNE 15.0 mph - N/A   Scattered Clouds
11:50 AM 46.4 °F 39.5 °F 35.6 °F 66% 29.98 in 6.2 mi NNE 17.3 mph - N/A   Scattered Clouds
12:20 PM 46.4 °F 39.5 °F 35.6 °F 66% 29.98 in 6.2 mi NNE 17.3 mph - N/A   Mostly Cloudy
12:50 PM 46.4 °F 39.5 °F 35.6 °F 66% 29.95 in 6.2 mi NNE 17.3 mph - N/A   Mostly Cloudy
1:20 PM 46.4 °F 39.2 °F 35.6 °F 66% 29.95 in 6.2 mi NNE 18.4 mph - N/A   Mostly Cloudy
1:50 PM 46.4 °F 39.5 °F 35.6 °F 66% 29.95 in 6.2 mi NNE 17.3 mph - N/A   Scattered Clouds
2:20 PM 46.4 °F 39.5 °F 35.6 °F 66% 29.95 in 6.2 mi NNE 17.3 mph - N/A   Scattered Clouds
2:50 PM 46.4 °F 39.2 °F 35.6 °F 66% 29.92 in 6.2 mi NNE 18.4 mph - N/A   Scattered Clouds
3:20 PM 46.4 °F 39.2 °F 35.6 °F 66% 29.92 in 6.2 mi NE 18.4 mph - N/A   Scattered Clouds
3:50 PM 46.4 °F 39.2 °F 33.8 °F 62% 29.92 in 6.2 mi NE 18.4 mph - N/A   Scattered Clouds
4:20 PM 46.4 °F 40.1 °F 33.8 °F 62% 29.92 in 6.2 mi NNE 15.0 mph - N/A   Scattered Clouds
4:50 PM 46.4 °F 39.2 °F 33.8 °F 62% 29.92 in 6.2 mi NNE 18.4 mph - N/A   Scattered Clouds
5:20 PM 44.6 °F 37.8 °F 33.8 °F 66% 29.92 in 6.2 mi NNE 15.0 mph - N/A   Scattered Clouds
5:50 PM 44.6 °F 37.4 °F 33.8 °F 66% 29.92 in 6.2 mi NNE 16.1 mph - N/A   Scattered Clouds
6:20 PM 42.8 °F 35.1 °F 35.6 °F 76% 29.92 in 6.2 mi North 16.1 mph - N/A   Scattered Clouds
6:50 PM 42.8 °F 34.3 °F 35.6 °F 76% 29.95 in 6.2 mi North 19.6 mph - N/A   Scattered Clouds
7:20 PM 41.0 °F 32.2 °F 35.6 °F 81% 29.95 in 6.2 mi North 18.4 mph - N/A   Scattered Clouds
7:50 PM 41.0 °F 32.5 °F 33.8 °F 76% 29.95 in 6.2 mi NNE 17.3 mph - N/A   Scattered Clouds
8:20 PM 41.0 °F 33.5 °F 33.8 °F 76% 29.95 in 6.2 mi NNE 13.8 mph - N/A   Partly Cloudy
8:50 PM 41.0 °F 33.1 °F 32.0 °F 70% 29.95 in 6.2 mi North 15.0 mph - N/A   Partly Cloudy
9:20 PM 41.0 °F 33.5 °F 30.2 °F 65% 29.95 in 6.2 mi North 13.8 mph - N/A   Partly Cloudy
9:50 PM 41.0 °F 33.5 °F 28.4 °F 61% 29.95 in 6.2 mi North 13.8 mph - N/A   Partly Cloudy
10:20 PM 41.0 °F 33.1 °F 30.2 °F 65% 29.95 in 6.2 mi North 15.0 mph - N/A   Partly Cloudy
10:50 PM 39.2 °F 30.5 °F 30.2 °F 70% 29.95 in - North 16.1 mph - N/A   Clear
11:20 PM 39.2 °F 31.2 °F 28.4 °F 65% 29.95 in - North 13.8 mph - N/A   Clear
11:50 PM 39.2 °F 29.8 °F 28.4 °F 65% 29.95 in - North 18.4 mph - N/A   Clear